Weather History for KHYS - April, 2013

Change the Weather History Date:

Tuesday, April 2, 2013

  Actual Average Record
Temperature  
Mean Temperature 40 °F -  
Max Temperature 44 °F 57 °F 89 °F (2003)
Min Temperature 35 °F 34 °F 26 °F (2005)
Degree Days  
Heating Degree Days 26    
Moisture  
Dew Point 22 °F    
Average Humidity 51    
Maximum Humidity 70    
Minimum Humidity 37    
Precipitation  
Precipitation 0.00 in - - ()
Sea Level Pressure  
Sea Level Pressure 30.23 in    
Wind  
Wind Speed 5 mph (ESE)    
Max Wind Speed 9 mph    
Max Gust Speed -    
Visibility 10 miles    
Events      
Averages and records for this station are not official NWS values.
T = Trace of Precipitation, MM = Missing Value Source: NWS Daily Summary

Daily Weather History Graph

Daily Weather History Graph

Search for Another Location

Airport or City:

Trip Planner

Search our weather history database for the weather conditions in past years. The results will help you decide how hot, cold, wet, or windy it might be!

Date:

Astronomy

Apr. 02, 2013 Rise Set
Actual Time 7:19 AM CDT 8:01 PM CDT
Civil Twilight 6:52 AM CDT 8:28 PM CDT
Nautical Twilight 6:21 AM CDT 9:00 PM CDT
Astronomical Twilight 5:48 AM CDT 9:33 PM CDT
Moon 2:05 AM CDT (4/2) 12:14 PM CDT (4/2)
Length of Visible Light 13h 35m
Length of Day
12h 42m
Waning Gibbous, 55% of the Moon is Illuminated
Apr 2
Waning Gibbous
Apr 2
Last Quarter
Apr 10
New
Apr 18
First Quarter
Apr 25
Full

Hourly Weather History & Observations

Time (CDT) Temp. Windchill Dew Point Humidity Pressure Visibility Wind Dir Wind Speed Gust Speed Precip Events Conditions
12:15 AM 35.6 °F 30.7 °F 21.2 °F 56% 30.23 in 10.0 mi East 5.8 mph - N/A   Partly Cloudy
12:35 AM 35.6 °F 29.2 °F 21.2 °F 56% 30.23 in 10.0 mi ENE 8.1 mph - N/A   Mostly Cloudy
12:55 AM 35.6 °F 28.6 °F 21.2 °F 56% 30.22 in 10.0 mi ENE 9.2 mph - N/A   Overcast
1:15 AM 35.6 °F 28.6 °F 21.2 °F 56% 30.22 in 10.0 mi East 9.2 mph - N/A   Overcast
1:35 AM 35.6 °F 28.6 °F 21.2 °F 56% 30.22 in 10.0 mi East 9.2 mph - N/A   Overcast
1:55 AM 35.6 °F 29.2 °F 19.4 °F 52% 30.23 in 10.0 mi East 8.1 mph - N/A   Overcast
2:15 AM 35.6 °F 29.2 °F 21.2 °F 56% 30.24 in 10.0 mi ESE 8.1 mph - N/A   Overcast
2:35 AM 35.6 °F 30.7 °F 21.2 °F 56% 30.25 in 10.0 mi SSE 5.8 mph - N/A   Overcast
2:55 AM 35.6 °F 29.9 °F 21.2 °F 56% 30.25 in 10.0 mi SSE 6.9 mph - N/A   Mostly Cloudy
3:15 AM 35.6 °F 31.7 °F 21.2 °F 56% 30.25 in 10.0 mi SE 4.6 mph - N/A   Overcast
3:35 AM 35.6 °F 31.7 °F 21.2 °F 56% 30.24 in 10.0 mi East 4.6 mph - N/A   Overcast
3:55 AM 35.6 °F - 21.2 °F 56% 30.25 in 10.0 mi Calm Calm - N/A   Overcast
4:15 AM 35.6 °F 32.8 °F 21.2 °F 56% 30.23 in 10.0 mi SE 3.5 mph - N/A   Overcast
4:35 AM 35.6 °F 32.8 °F 21.2 °F 56% 30.22 in 10.0 mi SE 3.5 mph - N/A   Overcast
4:55 AM 35.6 °F - 21.2 °F 56% 30.21 in 10.0 mi Calm Calm - N/A   Overcast
5:15 AM 35.6 °F 32.8 °F 21.2 °F 56% 30.20 in 10.0 mi ESE 3.5 mph - N/A   Overcast
5:35 AM 35.6 °F 31.7 °F 21.2 °F 56% 30.21 in 10.0 mi ENE 4.6 mph - N/A   Overcast
5:55 AM 35.6 °F 30.7 °F 21.2 °F 56% 30.22 in 10.0 mi NE 5.8 mph - N/A   Overcast
6:15 AM 35.6 °F 30.7 °F 21.2 °F 56% 30.22 in 10.0 mi East 5.8 mph - N/A   Overcast
6:35 AM 35.6 °F 30.7 °F 21.2 °F 56% 30.23 in 10.0 mi ESE 5.8 mph - N/A   Overcast
6:55 AM 35.6 °F 31.7 °F 19.4 °F 52% 30.23 in 10.0 mi East 4.6 mph - N/A   Overcast
7:15 AM 35.6 °F 31.7 °F 21.2 °F 56% 30.23 in 10.0 mi ESE 4.6 mph - N/A   Overcast
7:35 AM 35.6 °F 30.7 °F 21.2 °F 56% 30.24 in 10.0 mi SE 5.8 mph - N/A   Overcast
7:55 AM 35.6 °F 32.8 °F 21.2 °F 56% 30.25 in 10.0 mi East 3.5 mph - N/A   Overcast
8:15 AM 35.6 °F 32.8 °F 21.2 °F 56% 30.25 in 10.0 mi ESE 3.5 mph - N/A   Overcast
8:35 AM 35.6 °F 30.7 °F 21.2 °F 56% 30.26 in 10.0 mi SE 5.8 mph - N/A   Overcast
8:55 AM 35.6 °F 30.7 °F 21.2 °F 56% 30.25 in 10.0 mi ESE 5.8 mph - N/A   Overcast
9:35 AM 35.6 °F 32.8 °F 21.2 °F 56% 30.26 in 10.0 mi SE 3.5 mph - N/A   Overcast
9:55 AM 35.6 °F - 21.2 °F 56% 30.26 in 10.0 mi Calm Calm - N/A   Overcast
10:15 AM 35.6 °F - 19.4 °F 52% 30.27 in 10.0 mi Calm Calm - N/A   Overcast
10:35 AM 37.4 °F - 21.2 °F 52% 30.27 in 10.0 mi Calm Calm - N/A   Overcast
10:55 AM 37.4 °F 34.9 °F 21.2 °F 52% 30.27 in 10.0 mi NNE 3.5 mph - N/A   Overcast
11:15 AM 39.2 °F 35.9 °F 21.2 °F 49% 30.27 in 10.0 mi ENE 4.6 mph - N/A   Overcast
11:35 AM 39.2 °F 35.9 °F 21.2 °F 49% 30.27 in 10.0 mi ENE 4.6 mph - N/A   Overcast
11:55 AM 39.2 °F 34.2 °F 19.4 °F 45% 30.27 in 10.0 mi ENE 6.9 mph - N/A   Overcast
12:15 PM 39.2 °F 34.2 °F 19.4 °F 45% 30.26 in 10.0 mi East 6.9 mph - N/A   Overcast
12:35 PM 39.2 °F 35.0 °F 19.4 °F 45% 30.27 in 10.0 mi ESE 5.8 mph - N/A   Overcast
12:55 PM 41.0 °F 36.4 °F 19.4 °F 42% 30.26 in 10.0 mi ESE 6.9 mph - N/A   Overcast
1:15 PM 42.8 °F 39.3 °F 21.2 °F 42% 30.26 in 10.0 mi ENE 5.8 mph - N/A   Overcast
1:35 PM 42.8 °F 38.0 °F 19.4 °F 39% 30.25 in 10.0 mi SE 8.1 mph - N/A   Mostly Cloudy
1:55 PM 42.8 °F 37.5 °F 19.4 °F 39% 30.25 in 10.0 mi SE 9.2 mph - N/A   Overcast
2:15 PM 42.8 °F 37.5 °F 19.4 °F 39% 30.24 in 10.0 mi SSE 9.2 mph - N/A   Mostly Cloudy
2:35 PM 44.6 °F 40.2 °F 19.4 °F 37% 30.24 in 10.0 mi SSE 8.1 mph - N/A   Mostly Cloudy
2:55 PM 42.8 °F 38.0 °F 19.4 °F 39% 30.23 in 10.0 mi South 8.1 mph - N/A   Overcast
3:15 PM 42.8 °F 38.0 °F 19.4 °F 39% 30.23 in 10.0 mi SE 8.1 mph - N/A   Overcast
3:35 PM 42.8 °F 38.0 °F 19.4 °F 39% 30.22 in 10.0 mi SSE 8.1 mph - N/A   Overcast
3:55 PM 42.8 °F 38.6 °F 21.2 °F 42% 30.21 in 10.0 mi SE 6.9 mph - N/A   Overcast
4:15 PM 42.8 °F 38.6 °F 21.2 °F 42% 30.21 in 10.0 mi SSE 6.9 mph - N/A   Overcast
4:35 PM 42.8 °F 38.6 °F 21.2 °F 42% 30.20 in 10.0 mi SSE 6.9 mph - N/A   Overcast
4:55 PM 42.8 °F 39.3 °F 21.2 °F 42% 30.20 in 10.0 mi SE 5.8 mph - N/A   Overcast
5:15 PM 42.8 °F 39.3 °F 21.2 °F 42% 30.20 in 10.0 mi SE 5.8 mph - N/A   Overcast
5:35 PM 44.6 °F 41.4 °F 21.2 °F 39% 30.19 in 10.0 mi SSE 5.8 mph - N/A   Overcast
5:55 PM 44.6 °F 41.4 °F 21.2 °F 39% 30.20 in 10.0 mi SE 5.8 mph - N/A   Overcast
6:15 PM 42.8 °F 40.1 °F 21.2 °F 42% 30.20 in 10.0 mi SE 4.6 mph - N/A   Overcast
6:35 PM 42.8 °F 39.3 °F 21.2 °F 42% 30.20 in 10.0 mi SSE 5.8 mph - N/A   Overcast
6:55 PM 42.8 °F 41.1 °F 21.2 °F 42% 30.20 in 10.0 mi SE 3.5 mph - N/A   Overcast
7:15 PM 42.8 °F - 21.2 °F 42% 30.19 in 10.0 mi Calm Calm - N/A   Overcast
7:35 PM 42.8 °F - 21.2 °F 42% 30.19 in 10.0 mi Calm Calm - N/A   Overcast
7:55 PM 42.8 °F - 23.0 °F 46% 30.19 in 10.0 mi Calm Calm - N/A   Overcast
8:15 PM 42.8 °F - 24.8 °F 49% 30.19 in 10.0 mi Calm Calm - N/A   Overcast
8:35 PM 42.8 °F - 24.8 °F 49% 30.19 in 10.0 mi Calm Calm - N/A   Overcast
8:55 PM 41.0 °F 39.0 °F 24.8 °F 53% 30.19 in 10.0 mi South 3.5 mph - N/A   Overcast
9:15 PM 41.0 °F 39.0 °F 24.8 °F 53% 30.20 in 10.0 mi South 3.5 mph - N/A   Overcast
9:35 PM 41.0 °F 39.0 °F 24.8 °F 53% 30.20 in 10.0 mi South 3.5 mph - N/A   Overcast
9:55 PM 41.0 °F - 24.8 °F 53% 30.21 in 10.0 mi Calm Calm - N/A   Overcast
10:15 PM 39.2 °F - 24.8 °F 56% 30.21 in 10.0 mi Calm Calm - N/A   Overcast
10:35 PM 39.2 °F - 24.8 °F 56% 30.22 in 10.0 mi Calm Calm - N/A   Overcast
10:55 PM 39.2 °F 37.0 °F 26.6 °F 61% 30.23 in 10.0 mi SW 3.5 mph - N/A   Mostly Cloudy
11:15 PM 37.4 °F 34.9 °F 26.6 °F 65% 30.23 in 10.0 mi West 3.5 mph - N/A   Overcast
11:35 PM 37.4 °F 34.9 °F 26.6 °F 65% 30.24 in 10.0 mi West 3.5 mph - N/A   Overcast
11:55 PM 37.4 °F 32.8 °F 28.4 °F 70% 30.25 in 10.0 mi WSW 5.8 mph - N/A   Overcast